TimeCST,TemperatureF,Dew PointF,Humidity,Sea Level PressureIn,VisibilityMPH,Wind Direction,Wind SpeedMPH,Gust SpeedMPH,PrecipitationIn,Events,Conditions,WindDirDegrees,DateUTC
12:53 AM,33.1,24.1,70,30.62,10.0,Calm,Calm,-,N/A,,Clear,0,2012-01-03 06:53:00
1:53 AM,32.0,24.1,73,30.61,10.0,NNE,3.5,-,N/A,,Clear,30,2012-01-03 07:53:00
2:53 AM,30.9,24.1,76,30.60,10.0,NNE,3.5,-,N/A,,Clear,30,2012-01-03 08:53:00
3:53 AM,33.1,23.0,66,30.58,10.0,Calm,Calm,-,N/A,,Clear,0,2012-01-03 09:53:00
4:53 AM,30.0,23.0,75,30.55,10.0,Calm,Calm,-,N/A,,Clear,0,2012-01-03 10:53:00
5:53 AM,30.9,23.0,72,30.55,10.0,Calm,Calm,-,N/A,,Clear,0,2012-01-03 11:53:00
6:53 AM,30.9,23.0,72,30.56,10.0,Calm,Calm,-,N/A,,Clear,0,2012-01-03 12:53:00
8:53 AM,39.0,25.0,57,30.58,10.0,Calm,Calm,-,N/A,,Clear,0,2012-01-03 14:53:00
9:53 AM,46.0,24.1,42,30.56,10.0,South,8.1,-,N/A,,Clear,190,2012-01-03 15:53:00
10:53 AM,51.1,24.1,35,30.54,10.0,South,8.1,-,N/A,,Clear,170,2012-01-03 16:53:00
11:53 AM,54.0,24.1,31,30.50,10.0,South,9.2,-,N/A,,Clear,170,2012-01-03 17:53:00
12:53 PM,57.0,25.0,29,30.44,10.0,South,8.1,18.4,N/A,,Clear,170,2012-01-03 18:53:00
1:53 PM,60.1,21.9,23,30.40,10.0,South,15.0,21.9,N/A,,Clear,190,2012-01-03 19:53:00
2:53 PM,61.0,21.9,22,30.37,10.0,SSW,13.8,19.6,N/A,,Clear,200,2012-01-03 20:53:00
3:53 PM,61.0,21.9,22,30.35,10.0,South,15.0,20.7,N/A,,Clear,190,2012-01-03 21:53:00
4:53 PM,59.0,21.0,23,30.33,10.0,South,13.8,23.0,N/A,,Clear,170,2012-01-03 22:53:00
5:53 PM,55.0,21.9,28,30.32,10.0,South,9.2,-,N/A,,Clear,180,2012-01-03 23:53:00
6:53 PM,52.0,21.9,31,30.32,10.0,South,8.1,-,N/A,,Clear,180,2012-01-04 00:53:00
7:53 PM,51.1,21.9,32,30.32,10.0,South,11.5,-,N/A,,Clear,180,2012-01-04 01:53:00
8:53 PM,48.9,21.9,35,30.31,10.0,South,4.6,-,N/A,,Clear,180,2012-01-04 02:53:00
9:53 PM,46.9,21.9,37,30.30,10.0,South,5.8,-,N/A,,Clear,180,2012-01-04 03:53:00
10:53 PM,46.0,23.0,40,30.28,10.0,South,6.9,-,N/A,,Clear,180,2012-01-04 04:53:00
11:53 PM,46.0,26.1,46,30.26,10.0,South,4.6,-,N/A,,Clear,190,2012-01-04 05:53:00